[[{"header":{"parameterUnit":"m.s-1","parameterCategory":1,"la1":30.2991,"la2":30.254,"lo1":-89.0895,"lo2":-89.0444,"dy":0.0017,"dx":0.0017,"nx":28,"ny":28,"refTime":"2026-03-03T09:00:00:Z","depth":0,"parameterNumber":2,"parameterNumberName":"U-component_of_WINDS"},"data":[0,0,0,0,0,0,0,0,0,0,0,0,0,0,0,0,0,0,0,0,0,0,0,0,0,0,0,0,0,0,0,0,0,0,0,0,0,0,0,0,0,0,0,0,0,0,0,0,0,0,0,0,0,0,0,0,0,0,-3.2756,-3.2756,0,-3.2791,-3.2791,-3.2792,-3.278,-3.2779,-3.2779,-3.2778,-3.2811,-3.2813,-3.2814,0,0,0,0,0,0,0,0,0,0,0,0,0,-3.2678,-3.2679,-3.2756,-3.2756,-3.2757,-3.2791,-3.2791,-3.2792,-3.278,-3.2779,-3.2778,-3.2777,-3.2811,-3.2813,-3.2814,0,0,0,0,0,0,0,0,0,0,0,0,0,-3.2712,-3.268,-3.2756,-3.2755,-3.2755,-3.2791,-3.2791,-3.2792,-3.278,-3.2779,-3.2778,-3.2777,-3.281,-3.2812,-3.2815,-3.2852,0,0,-3.2822,-3.2823,0,0,0,0,0,0,0,0,-3.271,-3.2715,-3.2755,-3.2755,-3.2756,-3.278,-3.2776,-3.2812,-3.2781,-3.2771,-3.2778,-3.2777,-3.2802,-3.2805,-3.2814,-3.2854,-3.2855,-3.2822,-3.2824,-3.2825,-3.2825,0,0,0,0,0,0,0,-3.2708,-3.2713,-3.277,-3.2755,-3.2756,-3.2753,-3.2756,-3.2783,-3.2792,-3.2772,-3.2771,-3.2775,-3.2802,-3.2811,-3.2814,-3.2856,-3.2822,-3.2824,-3.2826,-3.2827,-3.293,-3.2931,0,0,0,0,0,0,-3.2705,-3.2711,-3.2768,-3.2771,-3.273,-3.2755,-3.2759,-3.2773,-3.2792,-3.2793,-3.2776,-3.2775,-3.2808,-3.2811,-3.2815,-3.2861,-3.2825,-3.2827,-3.2828,-3.2928,-3.293,-3.2931,0,0,0,0,0,0,-3.2704,-3.2711,-3.2767,-3.2741,-3.2748,-3.2758,-3.2774,-3.2775,-3.2784,-3.2795,-3.2797,-3.2785,-3.2807,-3.2812,-3.2844,-3.2862,-3.2828,-3.283,-3.2927,-3.2929,-3.2931,-3.2952,0,0,0,0,0,0,-3.2702,-3.271,-3.2724,-3.2741,-3.2749,-3.2795,-3.2775,-3.2776,-3.2789,-3.2787,-3.2803,-3.2805,-3.2807,-3.284,-3.2846,-3.2865,-3.2832,-3.2925,-3.2928,-3.293,-3.295,-3.2955,-3.2959,0,0,0,0,0,-3.2699,-3.2728,-3.2725,-3.2732,-3.2768,-3.2796,-3.2801,-3.2802,-3.279,-3.2805,-3.2812,-3.2804,-3.2859,-3.2843,-3.285,-3.287,-3.2924,-3.2927,-3.293,-3.2948,-3.2954,-3.2959,0,0,0,0,0,0,-3.2712,-3.273,-3.2727,-3.2763,-3.2778,-3.2794,-3.2812,-3.2808,-3.2826,-3.2824,-3.2825,-3.2829,-3.2861,-3.2869,-3.2851,-3.2908,-3.289,-3.2894,-3.2901,-3.2907,-3.2911,-3.2909,-3.2834,0,0,0,0,0,-3.2719,-3.2741,-3.2756,-3.2786,-3.2794,-3.2802,-3.2814,-3.2815,-3.283,-3.2836,-3.2846,-3.286,-3.2881,-3.2895,-3.2914,-3.2951,-3.2955,-3.2968,-3.2973,-3.2976,-3.298,-3.3001,-3.3007,-3.2941,-3.2941,-3.2941,0,0,-3.2734,-3.2747,-3.276,-3.2789,-3.2801,-3.2824,-3.2807,-3.2832,-3.2848,-3.284,-3.287,-3.2878,-3.2895,-3.293,-3.2945,-3.2937,-3.2999,-3.298,-3.2983,-3.2984,-3.3005,-3.3011,-3.3017,-3.2943,-3.2942,-3.2942,0,0,-3.2772,-3.2784,-3.2811,-3.2824,-3.2843,-3.2848,-3.2855,-3.2872,-3.2877,-3.2908,-3.2903,-3.2922,-3.2958,-3.297,-3.2981,-3.3027,-3.3021,-3.3033,-3.3056,-3.3077,-3.3082,-3.3087,-3.3103,-3.3109,-3.3037,-3.3037,-3.3037,0,-3.2788,-3.2822,-3.2825,-3.2851,-3.2864,-3.2859,-3.2886,-3.2898,-3.2922,-3.2931,-3.2921,-3.2967,-3.2978,-3.3016,-3.3027,-3.3036,-3.3044,-3.3031,-3.3081,-3.3086,-3.309,-3.3106,-3.3112,-3.3038,-3.3038,-3.3038,-3.3038,0,-3.2841,-3.2865,-3.2885,-3.2909,-3.2925,-3.2951,-3.2958,-3.2973,-3.2973,-3.298,-3.3012,-3.3025,-3.3048,-3.3057,-3.3056,-3.3096,-3.309,-3.3081,-3.3063,-3.3098,-3.3113,-3.3119,-3.304,-3.304,-3.3039,-3.3039,0,0,-3.2886,-3.2914,-3.2922,-3.2933,-3.2955,-3.2973,-3.3,-3.3023,-3.3036,-3.3053,-3.3076,-3.3107,-3.3099,-3.3112,-3.3113,-3.3131,-3.3167,-3.312,-3.312,-3.3128,-3.3212,-3.3219,-3.3226,-3.3164,-3.3165,-3.3166,-3.3211,0,-3.2927,-3.2974,-3.2979,-3.3021,-3.3044,-3.3041,-3.3064,-3.3079,-3.3087,-3.3107,-3.3114,-3.3137,-3.3125,-3.3133,-3.3151,-3.3159,-3.3184,-3.3156,-3.3184,-3.3185,-3.318,-3.3234,-3.324,-3.3282,-3.3217,-3.3218,-3.3218,0,-3.298,-3.3,-3.3045,-3.3065,-3.3075,-3.3096,-3.3118,-3.3138,-3.3156,-3.316,-3.3175,-3.3174,-3.3201,-3.3183,-3.3221,-3.3202,-3.3214,-3.322,-3.3222,-3.3224,-3.3204,-3.3237,-3.3295,-3.3302,-3.3228,-3.3227,-3.3226,0,-3.3009,-3.3048,-3.308,-3.3091,-3.3114,-3.3129,-3.314,-3.3156,-3.3171,-3.319,-3.32,-3.3222,-3.3234,-3.3252,-3.3257,-3.3243,-3.3295,-3.3277,-3.3299,-3.3299,-3.3309,-3.3308,-3.337,-3.3317,-3.3317,-3.3317,-3.3317,0,-3.3054,-3.3082,-3.3094,-3.3114,-3.3145,-3.3151,-3.3181,-3.3191,-3.3206,-3.3228,-3.3226,-3.3246,-3.3252,-3.3273,-3.3277,-3.3309,-3.3314,-3.3318,-3.3319,-3.3318,-3.3318,-3.3326,-3.3323,-3.3319,-3.3318,-3.3318,-3.3318,0,-3.3092,-3.3101,-3.3137,-3.3157,-3.3163,-3.3185,-3.3202,-3.3221,-3.3229,-3.3256,-3.3263,-3.3275,-3.33,-3.3307,-3.3337,-3.334,-3.3377,-3.3375,-3.3371,-3.3371,-3.3393,-3.3391,-3.3462,-3.3471,-3.3412,-3.3413,-3.3413,0,-3.312,-3.3141,-3.3165,-3.318,-3.3191,-3.3215,-3.323,-3.3236,-3.3252,-3.3275,-3.3292,-3.3317,-3.3337,-3.3378,-3.3389,-3.3412,-3.341,-3.3434,-3.3414,-3.3413,-3.3411,-3.341,-3.3413,-3.3437,-3.3438,-3.3438,-3.3439,0,-3.3168,-3.3172,-3.3195,-3.322,-3.3238,-3.3257,-3.3276,-3.3288,-3.3297,-3.3315,-3.3342,-3.3358,-3.3389,-3.3414,-3.3438,-3.3448,-3.3445,-3.3445,-3.3452,-3.3451,-3.3449,-3.3451,-3.3381,-3.3443,-3.3443,-3.3443,-3.3442,-3.3442,-3.3202,-3.3222,-3.3242,-3.3267,-3.3282,-3.33,-3.332,-3.3331,-3.3353,-3.338,-3.3382,-3.3411,-3.343,-3.3461,-3.3473,-3.3496,-3.3489,-3.3498,-3.35,-3.3502,-3.3505,-3.3445,-3.35,-3.35,-3.35,-3.35,-3.35,0,-3.3251,-3.3264,-3.3288,-3.3315,-3.3335,-3.3332,-3.3353,-3.337,-3.3395,-3.3413,-3.3434,-3.3465,-3.349,-3.3504,-3.3528,-3.3544,-3.3543,-3.355,-3.3549,-3.3552,-3.3509,-3.3501,-3.355,-3.355,-3.355,-3.355,-3.355,-3.355,-3.3279,-3.3313,-3.3319,-3.336,-3.3373,-3.3402,-3.3415,-3.3431,-3.3446,-3.3481,-3.3502,-3.3511,-3.3528,-3.3554,-3.3577,-3.358,-3.359,-3.3597,-3.36,-3.356,-3.3555,-3.355,-3.3542,-3.3599,-3.3599,-3.3641,-3.3641,-3.3642]},{"header":{"parameterUnit":"m.s-1","parameterCategory":1,"la1":30.2991,"la2":30.254,"lo1":-89.0895,"lo2":-89.0444,"dy":0.0017,"dx":0.0017,"nx":28,"ny":28,"refTime":"2026-03-03T09:00:00:Z","depth":0,"parameterNumber":3,"parameterNumberName":"V-component_of_WINDS"},"data":[0,0,0,0,0,0,0,0,0,0,0,0,0,0,0,0,0,0,0,0,0,0,0,0,0,0,0,0,0,0,0,0,0,0,0,0,0,0,0,0,0,0,0,0,0,0,0,0,0,0,0,0,0,0,0,0,0,0,2.718,2.718,0,2.7168,2.7168,2.7168,2.7154,2.7153,2.7153,2.7153,2.7134,2.7134,2.7133,0,0,0,0,0,0,0,0,0,0,0,0,0,2.7189,2.7188,2.718,2.718,2.718,2.7168,2.7168,2.7168,2.7154,2.7153,2.7153,2.7153,2.7134,2.7134,2.7133,0,0,0,0,0,0,0,0,0,0,0,0,0,2.7181,2.7188,2.7181,2.7172,2.7171,2.7168,2.7168,2.7168,2.7154,2.7153,2.7153,2.7153,2.7134,2.7134,2.7133,2.7136,0,0,2.7132,2.7132,0,0,0,0,0,0,0,0,2.7182,2.7181,2.7173,2.7172,2.7171,2.7162,2.7164,2.7157,2.7154,2.716,2.7153,2.7153,2.7143,2.7142,2.714,2.7136,2.7135,2.7132,2.7132,2.7131,2.7131,0,0,0,0,0,0,0,2.7182,2.7181,2.7175,2.7173,2.7172,2.7167,2.7166,2.7163,2.7153,2.7159,2.7158,2.7157,2.7143,2.7141,2.714,2.7134,2.7132,2.7131,2.7131,2.7131,2.7136,2.7136,0,0,0,0,0,0,2.7185,2.7182,2.7176,2.7175,2.7176,2.7168,2.7166,2.7165,2.7153,2.7151,2.7158,2.7157,2.7142,2.714,2.7139,2.7145,2.7131,2.7131,2.7131,2.7135,2.7136,2.7136,0,0,0,0,0,0,2.7185,2.7184,2.7176,2.7178,2.7177,2.7168,2.7167,2.7165,2.7163,2.7152,2.715,2.7158,2.7141,2.714,2.7139,2.7144,2.7131,2.713,2.7135,2.7136,2.7136,2.7154,0,0,0,0,0,0,2.7185,2.7184,2.7186,2.7179,2.7177,2.7177,2.7167,2.7165,2.7163,2.7162,2.7151,2.7149,2.7141,2.7139,2.7138,2.7143,2.713,2.7134,2.7135,2.7136,2.7153,2.7155,2.7157,0,0,0,0,0,2.7186,2.7189,2.7186,2.7185,2.7179,2.7177,2.7176,2.7168,2.7164,2.7165,2.7159,2.715,2.7143,2.7139,2.7138,2.7142,2.7134,2.7135,2.7136,2.7152,2.7155,2.7157,0,0,0,0,0,0,2.7194,2.7188,2.7184,2.7186,2.7183,2.7175,2.7176,2.7171,2.7167,2.7166,2.7154,2.7152,2.7153,2.7147,2.7143,2.7147,2.7138,2.7138,2.7151,2.7153,2.7155,2.7157,2.713,0,0,0,0,0,2.7197,2.7198,2.7191,2.7193,2.7192,2.7185,2.7184,2.7179,2.7174,2.7171,2.7164,2.7159,2.7156,2.7154,2.715,2.7152,2.7151,2.7155,2.7157,2.7159,2.716,2.7164,2.7166,2.7139,2.7139,2.7139,0,0,2.7201,2.7198,2.7198,2.7195,2.7192,2.7193,2.7183,2.7183,2.7184,2.7171,2.7171,2.7166,2.7159,2.7161,2.7161,2.7156,2.7167,2.716,2.7162,2.7161,2.7165,2.7167,2.717,2.714,2.714,2.714,0,0,2.721,2.7207,2.721,2.7208,2.7205,2.7201,2.7202,2.7196,2.7193,2.7194,2.7185,2.7185,2.7179,2.7176,2.7173,2.7186,2.7178,2.7185,2.7196,2.72,2.7202,2.7204,2.721,2.7213,2.7185,2.7185,2.7185,0,2.7215,2.7217,2.7211,2.7214,2.7214,2.7206,2.7209,2.7207,2.7201,2.7201,2.7196,2.7193,2.7187,2.7189,2.7193,2.719,2.7192,2.7186,2.7202,2.7204,2.7206,2.7212,2.7214,2.7186,2.7186,2.7186,2.7186,0,2.7225,2.7227,2.7229,2.7229,2.7229,2.7231,2.7226,2.7227,2.7223,2.7219,2.7221,2.7215,2.7212,2.7211,2.7205,2.7214,2.7212,2.7205,2.7195,2.7209,2.7215,2.7218,2.7188,2.7187,2.7187,2.7187,0,0,2.7235,2.7236,2.7237,2.7238,2.7236,2.7237,2.724,2.724,2.7242,2.7239,2.7242,2.724,2.7236,2.7233,2.7227,2.723,2.7244,2.7223,2.7223,2.7229,2.7257,2.7263,2.7266,2.724,2.724,2.724,2.7258,0,2.7245,2.7252,2.725,2.7257,2.726,2.7255,2.7258,2.7257,2.7254,2.7256,2.7252,2.7252,2.7244,2.7243,2.7246,2.7242,2.725,2.724,2.7242,2.7243,2.7246,2.7268,2.7274,2.7291,2.726,2.726,2.7261,0,2.7256,2.7259,2.7267,2.7269,2.727,2.7273,2.7275,2.7277,2.7276,2.7274,2.7274,2.7268,2.7272,2.7263,2.7269,2.7262,2.7263,2.7262,2.7262,2.7262,2.7253,2.7271,2.7296,2.7299,2.7264,2.7263,2.7263,0,2.7266,2.7271,2.7278,2.7279,2.728,2.7284,2.7284,2.7283,2.7285,2.7286,2.7287,2.7288,2.7288,2.7288,2.7284,2.7277,2.729,2.728,2.7289,2.729,2.7292,2.7292,2.732,2.7291,2.7291,2.7291,2.7291,0,2.7277,2.7283,2.7284,2.7288,2.7295,2.7293,2.7299,2.7299,2.73,2.7304,2.7298,2.7301,2.7294,2.7297,2.7293,2.73,2.7299,2.7298,2.7297,2.73,2.73,2.73,2.7299,2.7291,2.7291,2.7291,2.7291,0,2.7289,2.7289,2.7297,2.73,2.7301,2.7306,2.7308,2.7312,2.7311,2.7317,2.7318,2.7315,2.7319,2.7315,2.7317,2.7315,2.7325,2.7321,2.7326,2.7325,2.7336,2.7336,2.7365,2.7369,2.7336,2.7337,2.7337,0,2.7296,2.7301,2.7306,2.7311,2.7313,2.7318,2.7321,2.7319,2.7323,2.7326,2.733,2.7334,2.7337,2.7344,2.7342,2.7344,2.7342,2.7352,2.7342,2.7345,2.7344,2.7345,2.7347,2.7354,2.7354,2.7355,2.7355,0,2.731,2.7311,2.7317,2.7325,2.733,2.7334,2.7338,2.7341,2.734,2.7344,2.735,2.7353,2.7359,2.7363,2.7366,2.7366,2.7361,2.7359,2.7361,2.7364,2.7368,2.7368,2.7333,2.7358,2.7357,2.7357,2.7357,2.7357,2.7321,2.7327,2.7333,2.7341,2.7345,2.735,2.7356,2.7358,2.7363,2.737,2.7368,2.7376,2.7378,2.7382,2.7383,2.7389,2.7384,2.7387,2.7388,2.739,2.7393,2.7367,2.7389,2.7389,2.7389,2.7389,2.7389,0,2.7336,2.7341,2.7349,2.7357,2.7364,2.7362,2.7368,2.7373,2.7381,2.7385,2.739,2.7399,2.7405,2.7405,2.7411,2.7415,2.7414,2.7417,2.7417,2.7418,2.7395,2.7393,2.7419,2.7419,2.7419,2.7419,2.7419,2.7419,2.7345,2.7357,2.736,2.7374,2.7378,2.7388,2.7392,2.7398,2.7402,2.7413,2.7419,2.742,2.7424,2.743,2.7436,2.7436,2.7439,2.7444,2.7443,2.7422,2.7419,2.7416,2.7414,2.7444,2.7444,2.7466,2.7466,2.7466]}]]